Theta_e
295 288 280 285 288 289 286 285 282 286 291 291 291 291 291 292 293 292 292 293 293 294 299 304 305 304 305 306 309 313 323 325 326 325 324 324 323 323 324 323 323 323 323 322
287 285 290 291 290 289 287 282 281 287 291 292 291 286 289 292 292 293 293 293 293 295 299 302 304 304 304 305 308 309 313 322 325 326 325 324 324 324 324 326 324 324 324 323
285 288 291 289 287 287 283 279 281 283 289 291 286 286 286 289 292 294 294 295 296 295 297 299 302 303 304 304 305 307 309 313 325 326 325 324 324 323 322 323 324 325 325 324
286 290 288 286 286 286 281 289 287 286 288 281 287 276 281 285 288 291 292 293 294 296 298 299 300 301 302 304 305 305 307 310 312 325 324 323 321 319 320 323 324 324 324 324
283 286 285 285 287 287 284 289 287 285 287 287 279 277 275 285 285 288 291 293 293 295 297 297 298 300 301 302 303 304 304 305 308 311 313 314 314 320 321 321 321 318 319 319
287 290 288 287 289 288 290 287 288 286 288 278 275 274 272 281 285 287 291 293 292 293 294 296 297 299 298 300 301 303 302 302 305 307 308 308 308 310 310 312 312 313 314 314
285 285 288 289 285 288 287 282 272 271 269 273 280 277 276 283 287 287 289 290 292 293 293 293 294 295 296 296 298 300 301 300 302 304 304 306 307 306 307 308 308 308 308 309
279 277 285 289 285 283 283 282 274 268 271 273 281 274 278 287 289 289 289 288 290 290 292 292 292 293 294 295 296 297 298 298 300 301 302 304 305 305 305 305 306 306 306 306
280 280 287 288 288 286 283 280 285 280 275 277 276 280 285 287 285 285 285 286 287 289 290 290 291 292 292 292 293 294 296 297 298 299 301 302 303 304 303 304 304 304 305 305
284 278 284 286 287 287 284 287 278 276 267 268 276 276 278 283 283 283 283 283 285 286 288 289 290 290 291 292 293 293 294 295 297 297 298 300 301 302 302 302 301 302 302 302
286 282 280 284 282 281 283 282 283 281 279 275 273 276 282 284 284 282 283 284 284 285 286 288 289 290 290 291 291 291 292 294 295 296 296 296 298 298 299 299 299 299 299 300
287 283 275 279 284 286 285 283 283 276 275 277 278 276 286 285 284 283 283 284 285 285 286 287 287 288 289 289 290 290 291 292 292 294 294 295 296 297 296 296 296 296 296 297
286 274 267 274 280 284 283 284 285 283 281 277 274 275 285 283 282 283 283 283 284 285 285 286 286 286 287 287 288 289 290 290 291 292 292 293 294 295 295 294 294 294 294 294
290 280 276 272 277 280 279 281 283 282 275 277 278 277 281 281 281 282 282 283 283 284 285 285 285 285 286 287 286 287 288 289 290 291 291 290 291 293 293 294 293 292 292 292
286 272 277 280 281 281 281 281 281 280 282 277 278 279 282 283 282 282 283 283 284 284 284 285 285 285 285 286 286 287 287 288 289 289 289 289 290 291 292 292 292 291 290 290
285 272 275 271 279 279 277 280 281 281 281 281 281 281 286 286 282 281 283 283 283 284 285 285 285 286 286 286 285 286 286 287 288 287 287 288 289 289 289 290 291 291 290 289
281 274 267 266 273 271 270 274 278 280 280 282 278 283 285 282 284 283 283 284 283 284 285 285 285 286 286 286 286 286 286 287 286 286 286 286 287 287 287 288 289 289 289 289
276 272 265 264 265 263 278 278 278 279 281 282 283 284 286 286 287 286 286 285 284 285 285 285 285 285 286 286 285 286 286 286 285 285 284 284 284 285 285 286 286 286 287 287
282 278 264 265 258 272 277 277 277 277 277 282 283 285 286 283 283 281 285 285 285 285 286 286 286 286 286 285 285 285 285 284 284 283 283 283 283 283 283 283 283 284 284 284
280 279 272 258 261 263 276 277 279 280 273 280 284 286 282 283 280 281 284 285 285 286 287 286 286 286 285 284 284 284 284 283 283 282 282 282 283 282 282 282 282 283 283 284
276 275 269 259 261 269 278 279 280 272 278 280 284 286 284 284 285 285 285 285 286 287 286 286 285 284 284 284 284 283 283 283 282 282 282 282 281 282 282 282 281 282 282 282
275 274 268 265 262 268 280 279 276 280 281 281 283 286 286 285 284 285 286 285 285 285 285 285 284 283 283 284 284 283 282 282 281 280 280 278 277 280 282 279 280 280 281 282
274 277 273 275 276 281 281 281 283 283 282 282 284 285 286 284 283 284 284 285 285 285 284 283 283 283 283 283 282 281 281 280 277 273 272 273 275 278 279 279 280 279 279 279
277 280 277 278 281 282 282 282 282 283 283 284 285 285 285 284 284 283 284 284 283 283 283 282 282 282 282 281 280 280 279 275 270 271 272 273 275 276 276 278 280 279 277 277
278 281 278 277 281 280 282 283 285 283 283 283 284 285 285 284 283 284 284 283 284 283 282 281 280 280 279 275 274 272 273 269 272 271 271 272 273 273 275 276 276 278 278 279
279 279 279 278 282 283 283 284 285 283 283 284 284 283 283 284 283 283 284 284 283 281 279 277 276 276 276 273 271 269 265 269 269 271 272 272 272 272 273 274 275 281 283 285
Wind_Speed
3 5 1 3 1 4 3 2 4 4 3 4 6 4 9 10 13 14 15 14 15 18 19 12 12 11 12 11 12 12 6 7 9 10 10 7 8 5 5 5 8 9 9 9
5 0 4 3 3 3 4 1 5 5 2 2 5 2 5 7 11 12 14 11 13 17 17 15 12 12 13 13 12 13 9 10 12 7 8 4 6 3 4 5 7 9 10 10
3 3 1 1 3 2 2 4 2 3 5 1 6 2 7 10 4 13 12 10 9 14 16 15 13 13 13 15 14 13 11 10 5 10 6 3 3 3 4 4 3 4 4 5
3 1 1 3 2 1 5 6 4 2 5 4 3 6 2 9 11 15 14 14 11 14 14 15 15 15 16 14 13 15 15 14 13 9 12 10 8 6 3 3 2 4 5 5
1 2 1 1 2 1 7 2 3 2 5 2 3 1 6 6 13 15 13 14 14 16 14 16 15 14 15 13 13 13 17 18 13 10 8 7 6 3 4 5 8 7 5 6
5 2 2 3 3 3 4 3 5 2 2 3 5 4 6 5 4 7 10 10 12 14 17 16 15 14 14 14 14 13 17 17 17 11 13 17 16 9 10 9 8 6 5 7
2 1 1 0 3 2 6 4 5 7 4 5 2 3 7 6 4 2 6 7 6 7 10 12 15 13 13 16 16 13 15 17 15 12 18 15 17 17 13 10 9 7 6 7
2 5 3 1 2 2 2 4 6 4 3 5 2 2 5 4 2 1 3 5 7 6 6 7 8 11 11 11 12 15 18 15 13 12 16 17 13 9 11 11 9 6 6 8
3 3 0 1 2 3 2 3 5 1 1 2 2 3 5 4 1 4 5 5 6 7 7 7 8 9 11 11 11 11 11 10 12 14 13 11 9 12 9 9 8 7 6 7
1 2 1 1 1 1 2 3 4 3 2 5 4 3 4 5 5 1 4 5 5 5 7 8 7 7 7 7 7 11 10 7 6 4 5 5 4 10 11 10 10 8 7 6
1 3 3 0 1 4 2 2 1 3 4 2 4 5 5 8 8 6 4 4 4 4 5 5 6 8 8 11 12 8 8 9 9 8 8 8 7 8 10 9 6 5 5 6
1 3 3 4 5 2 2 5 4 4 3 3 2 7 1 7 8 7 4 4 4 5 4 6 6 7 9 10 9 9 9 10 9 8 7 7 7 8 9 8 7 6 6 5
5 2 3 9 6 3 4 5 4 3 3 6 3 6 2 5 6 6 7 4 3 5 7 5 7 7 7 7 7 9 9 9 9 8 8 8 8 8 8 6 6 7 5 6
3 3 6 6 2 0 4 4 5 6 3 3 7 3 5 7 8 7 6 5 4 4 4 4 5 5 6 6 6 7 8 8 6 7 8 8 8 7 6 5 6 6 5 6
4 4 3 5 7 4 6 7 8 9 8 7 4 7 7 13 12 10 8 6 6 5 4 4 4 4 3 6 6 6 5 6 6 7 7 7 6 6 5 6 6 6 6 5
3 3 3 5 5 5 9 11 13 14 11 12 9 15 8 6 7 7 9 8 7 6 5 4 3 4 4 4 3 4 5 5 5 7 7 6 7 6 6 6 6 6 6 6
6 6 4 6 5 6 11 14 19 9 7 15 14 14 4 5 13 15 12 11 9 8 6 6 5 4 2 3 3 4 4 3 6 6 6 6 6 6 6 6 5 5 5 5
6 7 4 5 5 3 8 5 5 15 9 14 8 7 11 9 16 12 13 14 10 9 8 7 6 4 3 1 3 2 5 5 5 4 3 3 5 5 5 4 4 4 2 2
1 5 2 4 4 10 7 5 8 8 9 19 19 10 8 4 6 3 9 9 12 10 8 7 6 5 5 3 3 5 4 4 4 5 6 5 4 4 4 6 5 3 2 2
3 3 5 3 5 8 5 2 3 5 9 7 16 16 8 9 7 7 11 9 9 10 8 8 7 5 6 3 4 5 3 3 5 6 5 5 5 5 4 3 4 2 2 4
4 1 7 3 4 12 11 5 5 6 7 2 9 10 12 12 6 6 11 7 9 9 10 8 7 7 7 5 5 4 3 5 2 3 3 4 4 5 4 4 2 3 4 5
13 10 5 4 2 13 8 6 9 7 1 2 5 7 14 7 7 12 14 11 11 11 9 8 8 7 6 5 4 4 4 2 3 5 5 4 4 3 3 2 2 3 5 5
7 10 10 13 11 4 10 5 7 4 4 3 4 6 10 9 7 11 11 13 12 11 8 7 8 7 5 5 4 5 2 3 4 3 3 2 3 3 4 5 6 4 4 4
6 6 4 4 9 14 9 8 4 7 6 4 4 7 10 9 10 10 11 10 9 8 8 7 8 7 6 5 4 4 3 3 4 4 3 3 4 5 5 3 3 4 3 4
6 13 8 7 9 5 11 12 14 9 8 6 4 7 12 9 10 12 12 11 10 9 7 7 8 6 6 5 4 3 3 4 4 2 3 2 2 4 4 3 3 3 2 2
8 10 11 12 8 8 6 13 13 12 12 11 9 6 6 9 13 10 13 11 10 9 6 5 5 6 7 6 5 3 3 4 4 2 2 2 2 2 3 4 5 7 8 8
Wind_Direction
342 59 116 277 196 178 212 238 262 253 282 322 281 17 350 354 350 344 348 342 347 337 328 338 343 342 343 351 348 330 239 209 195 181 170 169 171 166 161 165 178 187 186 188
15 110 223 242 291 245 253 353 312 295 235 288 323 295 318 359 348 357 341 338 341 335 346 341 352 357 4 357 358 3 354 279 197 184 178 186 165 162 156 172 181 192 194 196
172 244 204 44 321 357 232 157 239 227 317 174 319 312 338 349 341 356 0 335 352 345 348 343 356 11 5 11 1 4 343 50 201 179 159 131 109 104 171 169 173 192 191 188
233 288 73 338 245 73 295 187 155 307 326 293 35 300 324 334 360 8 360 1 11 354 351 353 4 10 12 6 7 14 11 19 340 189 173 165 182 185 173 156 133 74 89 92
254 162 39 301 198 192 243 221 219 194 259 321 313 17 276 328 358 352 1 11 12 358 354 354 1 9 7 7 18 17 32 33 28 27 62 93 86 87 81 92 115 111 95 89
245 311 182 227 295 214 286 328 49 81 245 282 255 127 304 336 304 333 356 14 16 4 345 347 353 6 9 10 18 17 38 28 23 35 58 71 60 56 78 74 80 67 63 72
357 245 289 160 333 355 24 32 10 352 4 233 208 38 232 279 288 251 335 352 351 9 347 352 356 359 8 10 14 15 29 41 24 6 61 55 60 60 51 65 66 65 65 56
134 322 187 196 168 216 310 128 134 252 303 285 271 259 263 234 314 207 355 6 346 348 352 351 1 351 7 13 14 16 35 24 17 12 47 53 33 61 58 43 51 52 51 57
158 268 352 195 200 149 270 51 136 180 152 285 232 271 313 138 288 61 53 49 19 356 354 6 8 12 357 4 14 24 37 37 20 16 33 37 37 58 73 56 48 42 27 52
161 315 288 272 93 320 139 176 81 9 348 288 277 237 240 204 228 281 51 44 37 8 357 6 12 16 34 32 36 35 19 31 32 21 32 41 45 62 64 52 43 41 37 45
121 127 273 356 221 202 44 94 92 136 158 254 301 263 219 200 174 194 144 109 72 30 14 20 20 9 13 29 28 24 14 28 37 28 37 29 22 45 59 64 58 43 31 30
139 149 248 218 308 252 204 158 143 132 264 238 274 273 208 176 162 167 185 129 117 104 60 13 17 21 21 25 26 23 22 32 28 22 34 40 38 45 52 48 40 35 38 43
170 323 13 344 353 337 240 189 160 129 93 229 170 258 125 144 159 184 170 182 132 109 84 50 25 25 21 18 19 25 31 28 21 22 29 33 37 38 48 44 39 44 26 30
116 159 183 190 207 186 240 206 183 159 154 240 233 237 210 205 190 192 196 165 140 115 107 100 79 53 20 16 24 23 24 22 23 34 28 28 27 27 42 44 50 48 33 36
145 199 185 246 244 245 242 232 213 202 206 193 262 224 226 208 200 187 180 176 156 160 138 116 110 97 63 45 31 27 23 24 25 39 31 29 28 31 32 38 44 42 42 43
150 254 69 299 298 259 263 242 235 234 225 251 254 264 226 213 144 165 186 177 177 178 172 140 124 112 88 68 51 52 32 19 40 48 33 17 28 28 32 31 35 34 30 31
151 129 87 268 345 332 294 232 215 214 196 210 219 232 168 195 192 187 184 183 180 176 176 177 164 147 110 82 46 51 27 36 48 46 30 24 23 32 30 34 31 32 27 24
139 114 107 241 22 296 245 165 199 219 229 214 231 208 196 200 207 179 180 175 175 173 169 177 168 159 165 136 76 40 47 46 55 58 58 37 31 36 34 42 41 38 8 22
133 127 114 154 193 293 280 205 168 175 262 212 218 218 216 133 87 205 180 168 170 171 172 172 165 159 140 147 100 93 71 65 53 28 28 14 15 11 18 28 5 5 347 340
105 47 130 92 165 223 246 238 163 117 287 218 193 197 159 146 173 230 173 163 161 160 156 155 159 151 140 153 124 116 113 87 42 13 352 345 358 5 1 344 335 311 312 333
145 179 203 179 231 286 236 172 156 92 248 137 180 184 163 190 205 150 147 154 158 155 157 150 153 154 158 159 142 119 105 58 357 348 355 8 6 353 347 331 348 334 341 327
171 168 189 119 154 267 149 79 179 211 216 235 176 188 184 174 155 154 164 154 155 153 151 160 146 159 163 163 136 110 87 13 27 16 23 358 339 340 343 320 320 360 4 352
206 183 177 193 212 224 207 190 208 178 174 217 199 189 170 157 170 155 163 161 168 161 158 160 157 159 159 149 139 133 137 67 46 50 14 334 313 331 354 10 4 3 3 349
230 180 210 132 233 229 230 238 247 205 207 205 222 182 168 175 166 162 157 163 161 162 165 158 156 166 168 160 148 126 122 110 96 53 357 329 14 359 2 3 12 355 341 331
181 151 170 270 266 312 243 228 215 214 222 231 211 194 190 157 173 163 165 171 171 163 159 165 169 175 180 172 155 140 151 155 88 34 299 357 27 13 350 335 293 310 254 237
183 176 180 214 202 195 241 210 195 187 206 210 188 203 199 177 168 164 172 174 165 165 156 159 181 164 181 184 166 168 176 127 108 281 307 25 13 355 354 343 333 340 321 323